Погода Razgrad

Погода Razgrad : погода сейчас, прогноз погоды и архив. Всё, что Вы хотите узнать о погоде Razgrad!

Поиск расширенной информации на нашем сайте:

Другие новости

Новости СМИ2

Главная страница сайта

Новости сайта

03.07.2017

Напоминаем, что на нашем специализированном сайте Метеоцентр.Азия вы можете получить высокодетализированные автоматические прогнозы погоды по пунктам России, СНГ и мира в авиационном формате (включающие направление и скорость ветра, видимость, явления погоды, количество и форму облачности, нижнюю и верхнюю границу облачности).


Погода Razgrad - сегодня

Время (UTC), дата Ветер
(°,м/с) 
Видим.   Явления Облачность Т
(°С)
Тd
(°С)
f(%) Тe
(°С)
Pmin
(гПа)
dP
(гПа)
Po
(мм)
O2
(г/м3)
Тmin Tmax R s Состояние
почвы
09 20.10.18 270 (З) 0600 м  слаб. ливневой дождь{туман}  ?/?  
+12.2 +11.5 95 +17  1019  0.8  734  281  +11.6  +15.1     
12 20.10.18 340 (С) 8000 м  дымка{ливн. осадки, туман}  9/9 600 м 
[Sc]
+16 +12.4 79 +22  1019  -0.2  734  277    +16.5  0.4     
15 20.10.18 290 (З) 18000 м    8/6 600 м средняя 
[Sc|Ac trans]
+14.8 +11.7 82 +19  1018.9  -0.3  734  278  +12.1  +16.5       
18 20.10.18 тихо ()   16000 м    6/6 600 м 
[Sc]
+12.2 +10.9 92 +15  1019.5  0.2  734  281  +11.6  +16.5  0.4     
21 20.10.18 290 (З) 16000 м    8/8 600 м 
[Sc]
+12.5 +11.8 95 +17  1019  -0.4  734  280  +10.6  +12.6       
00 21.10.18 тихо ()   16000 м    8/8 600 м 
[Sc]
+11 +10 94 +13  1019.2  -0.1  734  282  +10.6  +12.6       
03 21.10.18 тихо ()   16000 м    8/8 600 м 
[Sc]
+11.4 +10.6 95 +14  1018.4  -0.7  733  281  +10.5  +12.6       
06 21.10.18 290 (З) 1500 м  дымка  8/8 600 м 
[Sc]
+11.6 +11 96 +16  1019  0.6  733  281    +12.6       
09 21.10.18 050 (СВ) 1900 м  дымка  8/8 600 м 
[Sc]
+13.7 +10.7 82 +17  1018.7  733  279  +11.5  +14.2       
12 21.10.18 020 (С) 4000 м  дымка  8/8 600 м 
[Sc diur, vesp]
+15.8 +10.4 70 +19  1018.3  -0.1  733  277    +16.1       
15 21.10.18 020 (С) 7000 м  дымка  8/8 600 м 
[Sc]
+14.7 +9.8 72 +17  1018.6  0.2  734  279  +11.5  +16.1       
18 21.10.18 050 (СВ) 7000 м  дымка  8/8 600 м 
[Sc]
+12.3 +9.6 84 +14  1020.6  1.6  735  282    +16.1       
21 21.10.18 050 (СВ) 9000 м  дымка  8/8 600 м 
[Sc]
+10 +9 93 +10  1022.2  1.2  736  284  +9.5  +12.4       
00 22.10.18 050 (СВ) 20000 м    8/8 600 м 
[Sc]
+9.2 +8 92 +9  1022.9  0.5  736  285  +8  +12.4       
03 22.10.18 020 (С) 20000 м    ясно 
+8.8 +6.9 88 +8  1023  736  286  +7.9  +12.4       
06 22.10.18 020 (С) 10 км    9/9 600 м 
[Sc]
+8.3 +7 92 +8  1023.7  0.6  736  287  +6.9  +12.4       
09 22.10.18 050 (СВ) 10 км    9/9 600 м 
[Sc]
+11.6 +7.5 76 +11  1023.5  0.3  737  283  +8.2  +12       
12 22.10.18 020 (С) 20000 м    6/3 600 м верхняя 
[Cu med, cong|Ci sp]
+14.9 +6.1 56 +16  1021.7  -1.3  736  280  +8.2  +15.6       
18 22.10.18 020 (С) 20000 м    ясно 
+9.4 +4.5 71 +10  1022.1  0.2  735  286  +8.2  +16.1       
21 22.10.18 тихо ()   20000 м    ясно 
+8.5 +5 79 +9  1022.1  -0.1  735  286  +7.6  +9.6       
00 23.10.18 тихо ()   20000 м    ясно 
+6.2 +4.6 89 +6  1022.3  -0.1  735  289  +5.5  +9.6       
03 23.10.18 тихо ()   20000 м    ясно 
+5.8 +4.7 93 +6  1021.7  -0.7  735  289  +4.5  +9.6       
06 23.10.18 тихо ()   20000 м    3/0 средняя 
[Ac lent]
+6.4 +5.5 94 +6  1021.9  0.3  735  288  +4.5  +9.6       
09 23.10.18 020 (С) 20000 м    3/0 средняя 
[Ac trans]
+13.7 +4.2 53 +15  1020.6  -0.2  735  281  +6.3  +14       
12 23.10.18 270 (З) 20000 м    3/0 верхняя 
[Ci sp]
+17.5 +6.8 49 +18  1017.6  -2.3  733  276  +6.3  +18       
Время (UTC), дата Ветер
(°,м/с) 
Видим.   Явления Облачность Т
(°С)
Тd
(°С)
f(%) Тe
(°С)
Pmin
(гПа)
dP
(гПа)
Po
(мм)
O2
(г/м3)
Тmin Tmax R s Состояние
почвы

Для получения пояснительной информации подведите курсор к названию столбца.

ПОГОДА Razgrad - архив

Всё, что Вы хотите узнать о погоде Razgrad - удобно и подробно!

Выберите нужную дату (начиная с 1 января 2015* года) и нажмите кнопку "Найти".
Будут отображены архивные сводки погоды по пункту Razgrad, начиная с указанной даты.


Отображать данные в формате CSV (для использования в таблицах Excel)


Внимание! Наш архив погоды предназначен исключительно для личного некоммерческого использования в познавательных целях. Если Вам необходимы официальные справки о состоянии погоды (для производственных, юридических, коммерческих и т.п. целей), обращайтесь в органы Росгидромета.

*Примечание: данная дата относится к архиву по метеостанциям СССР (Россия, СНГ, Балтия).
Архив по метеостанциям Зарубежной Европы и Азии (кроме Китая) хранится 10 дней, по другим регионам земного шара (Китай, Африка, Америка, Австралия, Океания) - 1 день.

Razgrad - район местоположения метеостанции


Название, широта, долгота, высота метеостанции:
Razgrad 43.5°ш. 26.5°д. 347 м над ур. моря [Bulgaria]

Дополнительная информация

В oтличие oт бoльшинства пoгoдных сайтoв мы публикуем пoдрoбную метеoинфoрмацию в детальнoм прoфессиoнальнoм фoрмате.

Характеристики температуры и влажнoсти вoздуха измеряются на высoте 2 м в тени вдали oт зданий и деревьев.
Скoрoсть ветра измеряется на высoте 10 м (на урoвне рoста челoвека скoрoсть ветра ниже в 1.5-2 раза). Если метеoстанция нахoдится в гoрoде или в лесу, тo скoрoсть ветра занижена на 2-4 м/с пo сравнению с oткрытым местoм. Скoрoсть ветра над акватoриями крупных рек и oзёр, а также на вершинах хoлмoв на 2-5 м/с выше, чем в oбычных услoвиях.
Атмoсфернoе давление в разных тoчках местнoсти мoжет значительнo oтличаться oт давления на метеoстанции, в зависимoсти oт услoвий рельефа (при пoдъёме на 10 м давление пoнижается примернo на 1 мм рт.ст.).